Temperature
2 2 3 3 3 3 3 3 4 4 4 4 4 4 4 4 4 4 4 4 4 4 4 4 4 5 5 5 5 5 5 5 5 5 5 5 6 6 6 6 6 6 6
1 2 2 2 2 3 3 3 3 3 3 3 3 3 3 3 3 3 3 3 3 3 3 3 4 4 4 4 4 4 5 5 5 4 4 4 5 5 5 5 6 6 6
1 1 1 2 2 2 2 2 2 2 2 2 2 2 2 2 2 2 2 2 2 2 3 3 3 3 3 3 4 4 4 4 4 4 4 4 4 4 4 5 5 5 5
0 0 1 1 1 1 2 2 2 2 1 1 1 1 1 1 1 1 1 2 2 2 2 2 2 2 3 3 3 3 3 3 3 3 3 3 3 3 3 4 4 4 4
-1 -1 -0 0 1 1 1 1 1 1 1 1 1 0 0 0 0 0 1 1 1 1 1 1 1 2 2 2 2 2 2 2 2 2 2 2 2 2 2 2 3 3 4
-1 -1 -1 -0 -0 0 0 0 0 0 0 -0 -0 -0 -0 -0 -0 -0 -0 0 0 0 0 0 1 1 1 1 1 2 2 1 1 1 1 1 1 1 2 2 2 2 3
-2 -2 -1 -1 -1 -1 -0 -0 -1 -1 -1 -1 -1 -1 -1 -1 -1 -1 -1 -1 -1 -1 -0 -0 -0 0 0 1 1 1 1 1 1 1 1 1 1 1 1 1 1 1 2
-2 -2 -2 -1 -1 -1 -1 -1 -1 -1 -1 -1 -1 -1 -2 -2 -2 -2 -2 -2 -2 -2 -1 -1 -1 -1 -0 -0 -0 0 0 0 0 0 0 0 0 0 0 0 0 0 0
-2 -2 -2 -2 -2 -2 -2 -2 -2 -2 -2 -2 -2 -2 -2 -2 -2 -2 -2 -2 -2 -2 -2 -2 -2 -1 -1 -1 -1 -1 -0 -0 -0 -0 -0 -0 -0 -0 -0 -0 -0 -0 -0
-3 -3 -2 -2 -2 -2 -2 -2 -2 -2 -2 -2 -2 -2 -2 -3 -3 -3 -3 -3 -3 -3 -3 -2 -2 -2 -2 -2 -1 -1 -1 -1 -1 -1 -1 -1 -1 -1 -1 -1 -1 -1 -1
-3 -3 -3 -3 -3 -3 -3 -3 -3 -3 -3 -3 -3 -3 -3 -3 -3 -4 -4 -4 -4 -3 -3 -3 -3 -3 -2 -2 -2 -2 -2 -2 -2 -2 -2 -2 -2 -2 -1 -1 -1 -1 -1
-4 -3 -3 -3 -3 -3 -3 -3 -3 -3 -3 -3 -3 -3 -3 -4 -4 -4 -4 -4 -4 -4 -4 -4 -4 -3 -3 -3 -3 -3 -3 -3 -3 -3 -3 -2 -2 -2 -2 -2 -2 -2 -2
-4 -4 -4 -4 -4 -4 -4 -4 -4 -4 -4 -4 -4 -4 -4 -4 -4 -4 -4 -4 -4 -4 -4 -4 -4 -4 -4 -4 -4 -4 -4 -4 -4 -3 -3 -3 -3 -3 -3 -3 -3 -2 -2
-5 -5 -5 -5 -4 -4 -4 -4 -4 -4 -4 -4 -4 -4 -5 -5 -5 -5 -5 -5 -5 -5 -5 -5 -5 -5 -5 -5 -5 -5 -5 -5 -4 -4 -4 -4 -4 -4 -4 -3 -3 -3 -3
-5 -5 -5 -5 -5 -5 -5 -5 -5 -5 -5 -5 -5 -5 -5 -5 -5 -5 -6 -6 -6 -6 -6 -6 -6 -6 -6 -5 -6 -6 -5 -5 -5 -5 -5 -5 -4 -4 -4 -4 -4 -4 -4
-6 -6 -5 -5 -5 -5 -5 -5 -5 -5 -5 -6 -6 -6 -6 -6 -6 -6 -6 -6 -6 -6 -6 -6 -6 -6 -6 -6 -6 -6 -6 -6 -6 -6 -6 -5 -5 -5 -5 -5 -5 -5 -5
-6 -6 -6 -6 -6 -6 -6 -6 -6 -6 -6 -6 -6 -6 -6 -6 -7 -7 -7 -7 -7 -7 -7 -7 -7 -7 -7 -7 -7 -7 -7 -7 -7 -7 -6 -6 -6 -6 -6 -6 -5 -5 -5
-6 -6 -6 -6 -6 -6 -6 -6 -6 -6 -6 -6 -7 -7 -7 -7 -7 -7 -7 -7 -7 -7 -7 -7 -7 -7 -7 -7 -8 -8 -8 -8 -7 -7 -7 -7 -7 -7 -6 -6 -6 -6 -6
-6 -6 -6 -6 -6 -7 -7 -7 -7 -7 -7 -7 -7 -7 -7 -7 -8 -8 -8 -8 -8 -8 -8 -8 -8 -8 -8 -8 -8 -8 -8 -8 -8 -8 -8 -8 -7 -7 -7 -7 -7 -7 -6
-7 -7 -7 -7 -7 -7 -7 -7 -7 -7 -7 -7 -8 -8 -8 -8 -8 -8 -8 -8 -8 -8 -9 -8 -8 -9 -8 -9 -9 -9 -9 -9 -9 -9 -8 -8 -8 -8 -8 -8 -8 -7 -7
-7 -7 -7 -7 -7 -7 -8 -8 -8 -8 -8 -8 -9 -9 -9 -9 -9 -9 -9 -9 -9 -9 -9 -9 -9 -9 -9 -9 -9 -10 -10 -10 -10 -9 -9 -9 -9 -8 -8 -8 -8 -8 -8
-8 -8 -8 -8 -8 -8 -8 -8 -8 -8 -9 -9 -9 -9 -9 -9 -9 -10 -9 -10 -10 -10 -10 -10 -10 -10 -10 -10 -10 -10 -10 -10 -10 -10 -10 -10 -10 -9 -9 -9 -9 -9 -9
-8 -9 -9 -9 -9 -9 -9 -9 -9 -9 -9 -9 -9 -10 -10 -10 -10 -10 -10 -10 -10 -10 -10 -10 -10 -10 -10 -10 -10 -10 -11 -11 -11 -11 -10 -10 -10 -10 -10 -10 -9 -9 -9
-9 -9 -9 -9 -9 -9 -9 -9 -9 -10 -10 -10 -10 -10 -10 -10 -10 -10 -11 -11 -11 -11 -11 -11 -11 -11 -11 -11 -11 -11 -11 -11 -11 -11 -11 -11 -11 -10 -10 -10 -10 -10 -10
-9 -10 -10 -10 -10 -10 -10 -10 -10 -10 -10 -10 -10 -11 -11 -11 -11 -11 -11 -11 -11 -11 -11 -11 -12 -12 -12 -12 -12 -12 -11 -11 -11 -11 -11 -11 -11 -11 -11 -11 -11 -11 -10
-10 -10 -10 -10 -10 -10 -10 -10 -10 -11 -11 -11 -11 -11 -11 -11 -11 -11 -11 -11 -11 -11 -12 -12 -12 -12 -12 -12 -12 -12 -12 -12 -12 -12 -11 -11 -11 -11 -11 -11 -11 -11 -11
Wind_Speed
3 2 1 1 1 2 2 3 3 3 2 1 1 1 1 2 2 3 5 5 5 5 4 3 3 3 2 2 2 2 1 1 1 1 2 1 1 1 1 1 1 1 2
3 2 1 1 1 1 1 2 2 2 2 1 1 1 1 1 2 3 4 5 5 5 4 3 3 3 2 2 2 2 1 1 1 1 2 2 2 1 1 1 1 2 1
5 4 2 1 1 1 1 1 1 1 2 2 1 1 1 1 1 2 3 5 5 5 4 4 3 3 2 2 2 3 2 1 1 1 1 2 2 1 1 1 1 2 1
5 4 3 2 1 0 1 1 1 2 2 2 1 1 0 1 2 2 3 4 4 5 5 4 4 3 3 3 3 3 3 2 2 1 2 2 2 2 2 1 1 2 2
5 4 4 3 2 1 1 1 2 2 3 2 1 0 1 1 1 2 3 3 3 4 5 5 4 4 3 3 3 3 3 3 3 2 2 2 2 3 3 3 2 2 2
4 4 3 2 1 1 1 1 1 2 2 2 2 1 1 1 2 2 3 3 3 3 4 5 4 4 4 4 4 4 4 3 3 3 2 3 3 3 3 4 4 3 3
4 3 3 3 2 1 0 0 0 1 1 1 1 2 2 2 2 3 3 3 3 3 4 5 4 4 4 4 4 4 4 4 4 4 3 3 4 3 4 4 4 4 4
3 3 3 3 3 2 1 1 1 0 1 1 1 2 2 2 2 3 3 3 3 4 5 5 5 5 5 5 4 4 4 4 4 5 5 4 4 3 4 4 4 4 4
3 3 3 3 3 2 2 2 2 1 1 1 2 2 2 2 3 3 3 3 4 4 5 6 5 5 5 4 4 4 4 4 4 4 5 5 4 4 4 4 4 5 5
2 2 2 3 2 2 2 2 2 2 2 2 2 2 2 2 3 3 3 4 4 5 5 5 5 5 5 5 4 4 4 4 4 4 5 5 4 4 4 4 5 5 6
2 1 1 1 2 2 2 2 2 2 2 2 2 2 2 2 2 2 3 4 4 5 5 5 5 5 5 5 4 4 4 5 4 4 5 6 6 5 4 4 5 5 6
1 1 1 1 1 1 2 2 2 2 2 3 3 2 2 2 2 3 3 4 4 4 5 5 5 5 5 5 4 4 4 4 5 5 5 6 5 6 5 5 6 6 6
1 1 1 1 2 2 2 2 2 2 3 3 2 2 2 2 3 3 3 3 4 4 4 4 4 4 4 4 4 4 5 5 5 5 6 6 6 6 6 6 7 6 6
2 2 2 2 2 2 2 3 3 3 3 3 2 2 3 3 3 3 3 4 4 4 4 4 4 5 5 5 5 5 5 5 5 5 6 6 7 7 7 6 7 7 7
3 3 3 3 3 3 3 3 3 3 3 3 3 3 3 3 3 3 3 4 4 4 4 4 4 5 4 4 5 5 6 6 6 6 6 7 7 8 8 7 7 7 7
5 4 4 4 4 3 3 4 4 3 3 3 3 3 3 3 3 3 4 4 4 4 4 4 4 5 4 6 7 7 6 6 6 7 7 7 8 8 10 10 10 10 9
5 5 5 5 5 4 4 4 4 3 3 3 3 3 3 3 4 4 4 4 4 5 4 4 5 5 6 8 8 8 7 6 6 7 7 6 6 7 7 8 10 11 12
5 5 5 4 4 4 4 4 4 3 3 3 4 3 3 4 4 4 4 5 4 5 5 5 5 6 6 8 9 9 7 7 7 7 7 7 7 6 7 7 8 8 9
5 5 5 4 4 4 4 3 3 3 3 4 4 4 4 4 4 4 5 5 5 5 5 5 5 6 7 9 9 8 6 6 7 7 7 7 7 8 10 8 8 8 8
4 3 3 3 3 3 3 3 3 4 4 5 5 4 4 4 5 5 5 5 5 5 6 5 5 6 7 8 9 8 5 6 6 6 6 7 8 9 10 8 7 8 8
3 2 2 3 3 3 2 4 4 5 5 4 4 4 4 4 5 5 5 5 5 5 5 6 6 6 7 8 9 8 5 5 6 6 6 5 8 9 9 9 8 9 9
2 2 2 3 3 2 3 4 5 5 4 4 4 4 4 4 4 4 4 4 4 5 5 5 6 5 6 7 8 8 8 7 6 6 6 6 9 9 9 8 8 10 8
3 2 3 4 4 3 3 5 5 4 4 4 4 4 4 4 4 4 4 4 4 4 4 4 5 5 5 5 8 9 9 9 7 6 8 9 10 9 7 7 9 8 6
3 3 3 4 5 4 4 5 5 4 3 4 4 4 4 4 4 4 4 4 4 4 4 4 5 5 5 5 5 5 6 7 7 7 8 9 8 7 6 7 6 5 5
3 3 4 5 5 5 5 4 4 3 3 4 4 4 4 4 4 4 4 5 5 5 5 5 5 5 6 6 8 7 5 5 6 6 5 4 4 4 4 4 4 4 4
4 4 4 5 5 5 5 4 3 3 3 4 4 3 3 3 4 4 4 6 7 9 10 10 9 8 10 11 11 10 9 9 7 6 5 4 4 4 4 5 5 4 4
Wind_Direction
205 180 145 90 64 56 54 48 44 41 47 32 5 2 350 12 21 20 17 10 0 352 347 349 346 336 321 310 310 298 282 318 333 294 286 271 249 296 334 357 347 356 6
194 181 151 106 81 66 59 57 46 42 38 19 5 339 333 353 11 11 12 4 356 352 347 343 337 334 313 303 298 304 266 305 323 278 268 266 227 236 279 309 321 321 341
203 192 181 162 120 71 37 23 38 46 34 29 47 57 45 360 348 346 354 356 350 348 347 338 331 324 314 294 291 288 267 244 248 282 268 253 250 296 241 245 274 300 308
205 198 192 190 183 150 36 33 33 45 35 36 48 81 352 317 316 321 327 343 346 345 345 337 335 326 310 299 294 288 276 247 236 252 270 279 291 260 260 224 243 290 304
202 199 197 196 191 159 82 50 51 43 33 32 34 31 324 311 317 325 322 331 341 340 342 338 333 328 313 297 293 284 281 252 241 241 261 257 262 255 254 257 265 274 283
201 198 192 189 185 161 108 72 72 48 32 28 21 352 322 325 324 324 319 321 325 332 337 333 328 321 316 307 294 279 272 259 249 242 241 248 244 241 249 258 266 271 277
196 198 198 204 208 207 199 155 118 37 19 10 356 335 320 310 310 317 314 315 314 319 324 324 319 315 310 306 299 281 271 256 246 243 246 250 255 254 252 254 262 271 281
200 207 214 217 222 225 222 220 243 284 331 333 320 319 315 309 310 313 310 306 307 311 315 313 312 308 302 301 298 283 270 258 247 242 242 245 251 255 246 249 253 265 269
208 214 217 221 228 230 230 235 246 269 294 297 300 305 310 307 307 310 308 308 312 315 313 313 312 307 304 303 297 281 273 263 256 248 240 240 245 243 254 249 243 246 254
224 226 220 227 234 241 245 248 245 253 273 291 300 307 316 313 310 309 310 312 312 312 309 311 312 311 312 307 294 286 281 268 262 256 250 246 244 242 242 247 250 246 248
238 247 258 266 261 255 254 255 266 275 288 297 298 301 305 308 306 305 308 309 309 308 305 306 306 305 307 305 295 292 288 275 269 265 258 254 250 245 243 240 243 245 244
240 241 258 282 300 288 278 273 281 288 294 297 297 298 304 296 293 298 302 303 302 302 302 302 301 302 303 301 295 292 289 285 279 272 264 260 254 248 247 241 239 242 245
248 244 254 267 279 296 295 277 277 288 299 302 300 301 305 306 301 304 306 307 303 303 304 302 300 303 304 303 299 294 288 284 282 278 272 269 263 257 254 248 245 244 246
238 244 263 275 280 287 295 293 284 287 294 295 292 291 296 301 307 314 318 317 310 307 306 305 304 304 304 301 299 299 293 287 286 283 278 272 267 265 265 259 251 249 248
247 255 265 272 275 285 293 295 295 291 288 286 287 289 296 302 307 311 313 313 311 307 304 303 303 301 299 299 300 297 292 288 286 283 280 277 275 273 269 263 257 249 248
259 266 269 270 270 275 283 288 288 290 279 275 284 294 298 298 300 305 307 307 305 304 303 300 300 298 297 305 301 299 290 284 282 283 283 279 273 273 271 267 263 254 250
269 267 265 266 267 268 268 270 275 279 270 270 283 288 290 291 296 302 301 299 299 300 298 298 298 294 297 305 304 301 292 285 284 283 282 278 277 278 273 272 269 264 258
268 272 269 268 269 269 269 270 270 263 263 269 276 280 283 287 295 296 295 296 296 294 294 295 296 295 298 306 307 305 291 285 284 283 281 280 279 276 280 280 275 271 265
267 269 263 260 263 265 268 263 262 261 262 265 271 274 275 280 287 289 290 293 293 292 293 294 294 295 299 308 310 306 294 288 287 286 284 283 281 280 280 277 275 278 278
276 274 272 267 263 267 263 250 256 260 262 266 269 270 269 269 274 281 286 289 286 287 291 291 291 293 297 307 307 304 292 291 292 292 289 283 285 282 282 274 274 275 282
284 277 270 266 266 270 256 253 256 258 266 271 270 269 268 268 270 276 279 282 284 287 289 290 291 292 295 302 302 301 292 289 291 292 293 291 295 288 281 275 273 278 286
290 281 277 281 283 267 249 257 263 271 273 266 264 268 271 272 273 275 280 281 281 283 286 290 293 293 294 297 301 301 298 295 288 290 294 293 296 293 290 287 286 288 291
276 276 275 286 289 273 252 258 271 278 266 261 263 267 271 271 271 269 274 278 276 276 283 288 292 297 298 299 300 300 299 296 290 290 295 296 296 292 289 291 293 291 284
267 267 268 277 285 283 272 266 277 271 253 257 266 269 269 272 271 267 264 264 266 270 276 283 288 293 296 297 301 300 299 296 294 293 294 296 295 293 293 294 291 285 283
269 262 260 269 279 287 283 280 277 262 255 259 263 266 265 269 271 267 263 261 260 263 267 275 280 285 288 292 297 298 296 297 295 294 289 292 296 295 294 295 293 288 283
267 266 266 270 278 284 285 286 276 256 254 263 266 265 265 269 271 276 281 272 268 275 273 275 277 280 282 291 293 293 294 297 297 291 286 288 289 290 293 295 297 298 294
Height
1526 1526 1526 1527 1527 1527 1528 1528 1528 1528 1528 1528 1528 1528 1528 1528 1527 1527 1527 1526 1526 1525 1524 1524 1523 1523 1522 1523 1523 1523 1522 1522 1523 1524 1524 1524 1524 1524 1524 1524 1525 1525 1525
1523 1523 1524 1524 1525 1525 1525 1526 1526 1526 1526 1525 1525 1525 1525 1524 1524 1524 1523 1523 1522 1522 1521 1521 1520 1519 1519 1519 1519 1519 1519 1519 1520 1521 1521 1522 1523 1521 1521 1521 1521 1522 1522
1520 1521 1521 1522 1522 1522 1523 1523 1523 1523 1523 1523 1523 1523 1522 1521 1521 1521 1520 1519 1519 1518 1518 1517 1517 1516 1516 1516 1516 1516 1516 1516 1516 1517 1519 1519 1519 1518 1518 1517 1518 1519 1519
1518 1518 1518 1519 1519 1520 1521 1521 1521 1521 1520 1520 1520 1519 1519 1518 1517 1517 1516 1516 1515 1515 1514 1513 1513 1513 1512 1512 1512 1512 1512 1512 1513 1514 1515 1516 1516 1517 1515 1515 1515 1516 1516
1515 1516 1516 1517 1517 1518 1518 1518 1518 1518 1518 1517 1517 1517 1516 1516 1515 1514 1513 1512 1512 1511 1510 1510 1509 1509 1509 1509 1508 1508 1508 1509 1509 1510 1511 1512 1512 1513 1513 1512 1512 1512 1513
1513 1513 1514 1515 1515 1515 1516 1516 1515 1515 1515 1515 1514 1514 1513 1512 1512 1511 1510 1509 1508 1508 1506 1506 1505 1505 1505 1505 1504 1505 1505 1505 1505 1506 1507 1508 1508 1509 1509 1509 1508 1508 1509
1511 1511 1512 1512 1513 1513 1513 1513 1513 1513 1512 1512 1511 1511 1510 1510 1508 1507 1506 1506 1505 1504 1503 1502 1501 1501 1501 1501 1501 1501 1501 1501 1502 1502 1503 1504 1504 1505 1506 1506 1505 1505 1505
1508 1509 1509 1510 1510 1510 1510 1510 1510 1510 1510 1509 1508 1508 1507 1506 1505 1504 1503 1502 1501 1500 1499 1499 1498 1497 1497 1497 1497 1497 1497 1497 1498 1498 1499 1499 1500 1501 1501 1502 1502 1502 1502
1506 1507 1507 1508 1508 1508 1508 1508 1508 1507 1507 1506 1505 1504 1503 1502 1502 1501 1500 1499 1498 1497 1496 1495 1494 1494 1493 1493 1493 1493 1493 1493 1493 1494 1494 1495 1495 1496 1497 1497 1498 1500 1499
1505 1505 1505 1505 1506 1506 1506 1506 1505 1505 1504 1503 1502 1501 1500 1499 1498 1497 1496 1495 1494 1493 1492 1492 1491 1490 1489 1489 1488 1488 1488 1488 1488 1489 1489 1490 1490 1491 1492 1493 1493 1494 1495
1503 1503 1503 1503 1503 1503 1503 1503 1503 1502 1501 1500 1500 1499 1498 1496 1495 1494 1493 1492 1491 1490 1489 1488 1487 1486 1485 1485 1485 1484 1484 1484 1484 1484 1484 1485 1485 1486 1487 1487 1488 1489 1489
1501 1501 1501 1501 1501 1500 1500 1500 1499 1499 1498 1498 1497 1496 1495 1493 1492 1491 1490 1489 1487 1486 1485 1484 1483 1482 1482 1481 1481 1480 1480 1479 1479 1479 1480 1480 1480 1481 1482 1482 1483 1484 1484
1499 1499 1499 1498 1498 1498 1497 1497 1497 1496 1496 1495 1494 1493 1492 1490 1489 1488 1487 1485 1484 1483 1482 1481 1480 1479 1478 1478 1477 1476 1476 1475 1475 1475 1475 1475 1475 1476 1476 1477 1478 1478 1479
1497 1497 1496 1496 1495 1495 1495 1494 1494 1493 1493 1492 1491 1490 1489 1488 1486 1485 1484 1482 1481 1480 1479 1478 1476 1475 1475 1474 1473 1472 1471 1471 1470 1470 1470 1470 1470 1471 1471 1472 1472 1473 1473
1494 1494 1493 1493 1492 1492 1492 1491 1491 1490 1489 1489 1488 1487 1486 1485 1483 1482 1481 1479 1478 1477 1475 1474 1473 1472 1471 1470 1469 1468 1468 1467 1466 1465 1465 1465 1465 1465 1466 1466 1467 1467 1468
1491 1491 1490 1490 1489 1489 1489 1488 1488 1487 1486 1486 1485 1484 1483 1481 1480 1479 1478 1476 1475 1473 1472 1471 1469 1468 1467 1467 1466 1465 1463 1462 1462 1461 1460 1460 1460 1460 1460 1460 1461 1462 1462
1488 1487 1487 1487 1487 1486 1486 1485 1485 1484 1483 1482 1481 1480 1479 1478 1477 1476 1474 1473 1471 1470 1468 1467 1466 1464 1464 1463 1462 1460 1460 1459 1457 1456 1455 1455 1454 1454 1454 1454 1455 1455 1456
1485 1484 1484 1483 1483 1483 1483 1482 1481 1481 1480 1479 1478 1477 1476 1475 1473 1472 1471 1469 1468 1467 1465 1463 1462 1461 1460 1459 1458 1457 1455 1454 1453 1452 1450 1450 1449 1449 1449 1449 1449 1449 1449
1481 1481 1480 1480 1480 1480 1479 1478 1478 1477 1476 1475 1474 1473 1472 1471 1470 1468 1467 1466 1465 1463 1461 1460 1458 1457 1456 1455 1454 1452 1451 1450 1448 1447 1446 1445 1444 1444 1444 1444 1444 1443 1443
1479 1478 1477 1477 1477 1476 1476 1475 1474 1473 1472 1471 1470 1469 1468 1467 1466 1465 1464 1462 1461 1459 1458 1456 1455 1453 1452 1451 1450 1449 1447 1445 1444 1443 1441 1440 1439 1439 1439 1439 1438 1438 1438
1476 1475 1474 1474 1473 1473 1472 1471 1470 1469 1469 1468 1467 1466 1465 1464 1462 1461 1460 1459 1457 1455 1454 1452 1451 1449 1448 1447 1446 1445 1443 1442 1440 1438 1437 1435 1434 1434 1434 1434 1434 1433 1433
1473 1472 1471 1471 1470 1469 1469 1467 1466 1466 1465 1464 1463 1462 1461 1460 1458 1457 1456 1455 1453 1451 1450 1448 1446 1445 1443 1442 1441 1441 1439 1438 1437 1435 1433 1432 1431 1430 1429 1429 1428 1428 1428
1470 1469 1468 1467 1467 1466 1465 1464 1463 1462 1461 1460 1459 1458 1457 1456 1455 1453 1452 1451 1449 1448 1446 1444 1442 1441 1440 1438 1438 1437 1435 1434 1433 1431 1430 1428 1427 1426 1425 1424 1424 1423 1423
1467 1466 1465 1464 1463 1462 1461 1461 1460 1458 1457 1456 1455 1454 1453 1452 1451 1450 1448 1447 1446 1444 1442 1441 1439 1437 1436 1435 1434 1433 1432 1431 1429 1428 1426 1425 1424 1423 1421 1420 1419 1419 1418
1464 1463 1461 1461 1460 1459 1458 1457 1456 1455 1454 1453 1451 1450 1449 1448 1447 1446 1445 1443 1442 1441 1439 1438 1436 1434 1433 1432 1431 1430 1429 1427 1426 1425 1423 1421 1420 1419 1417 1416 1416 1415 1414
1460 1459 1458 1457 1456 1455 1454 1453 1452 1451 1450 1449 1448 1447 1445 1444 1443 1442 1441 1439 1438 1437 1436 1434 1433 1431 1430 1428 1427 1426 1425 1424 1423 1421 1419 1418 1417 1415 1414 1413 1412 1411 1410